Weather in Elabuga

Russia / Republic of Tatarstan     55°45′24″N   52°03′16″E
temp.,
°C
wind,
m/s
gust,
m/s
humid.,
%
clouds,
%
prec.,
mm/h
press.,
hPa
HPBL,
m
8 march, mon
mon800:00−10s71294100 0.2 1002513
03:00−9s71493100 1.0 999681
06:00−7s61394100 0.3 994528
09:00−3sw101591100 1.3 9931258
12:00−4wsw111585100 0.5 9951077
15:00−5wsw7128467 0.5 998896
18:00−8sw5128956 0.1 1001289
21:00−12ssw339135 0.1 100021
9 march, tue
tue900:00−10n1289100 0.0 100021
03:00−12wnw4793100 0.0 1003117
06:00−15w459537 0.0 100695
09:00−12wsw479333 0.0 1008269
12:00−9wsw359380 0.0 1009332
15:00−9wsw349287 0.0 1010354
18:00−14wsw229663 0.0 100921
21:00−17wnw1110046 0.0 100920
10 march, wed
wed1000:00−17nnw129953 0.0 100820
03:00−16nnw349774 0.1 100861
06:00−15n61094100 0.3 1008400
09:00−17n61093100 0.6 1010482
12:00−16n6108799 0.1 1012518
15:00−16nnw6118397 0.1 1014648
18:00−19nnw5128897 0.0 1016416
21:00−21nnw5129187 0.0 1017299
11 march, thu
thu1100:00−23nnw4109367 0.0 1018215
03:00−25nw489669 0.0 1019152
06:00−26wnw479759 0.0 1020121
09:00−20wnw599480 0.0 1020380
12:00−15wnw5892100 0.1 1020490
15:00−13wnw5890100 0.3 1020509
18:00−13w51093100 0.0 1020326
21:00−11wnw41189100 0.0 1022350
12 march, fri
fri1200:00−13wnw4108995 0.0 1023216
03:00−16wnw4109257 0.0 1025165
06:00−17wnw489240 0.0 1027158
09:00−13wnw598667 0.0 1028315
12:00−9w6108341 0.0 1028543
15:00−9w6108238 0.0 1028582
18:00−12wsw5118983 0.0 1029326
21:00−14w5119091 0.0 1031279